Location: Waco, TX
(31.5480°N, 97.1670°W)
Time: 22:52:17
(UTC-05:00)

Envisat - Visible Passes

Search period start: 21 June 2018 00:00
Search period end: 01 July 2018 00:00
Orbit: 764 x 766 km, 98.2° (Epoch: 21 June)

Date Brightness Start Highest point End Pass type
(mag) Time Alt. Az. Time Alt. Az. Time Alt. Az.
21 Jun 4.2 21:21:20 10° S 21:26:06 42° W 21:30:54 10° NNW visible
23 Jun 5.2 21:47:52 10° SSW 21:51:46 22° W 21:55:42 10° NW visible
24 Jun 3.7 21:09:58 10° S 21:14:55 55° W 21:19:54 10° NNW visible
25 Jun 5.8 22:15:57 10° WSW 22:17:33 11° W 22:19:08 10° WNW visible
26 Jun 4.9 21:36:12 10° SSW 21:40:34 29° W 21:44:57 10° NW visible
27 Jun 3.3 20:58:42 10° S 21:03:45 72° WSW 21:08:50 10° NNW visible
28 Jun 5.6 22:03:22 10° SW 22:06:17 15° W 22:09:13 10° WNW visible
29 Jun 4.4 21:24:41 10° SSW 21:29:22 37° W 21:34:04 10° NNW visible
